Home > Weather > Stornoway > Past weeks

Flag for United Kingdom Past Weather in Stornoway, Scotland, United Kingdom — Yesterday and Last 2 Weeks

Now
57 °F

Drizzle. Broken clouds.


Feels Like: 53 °F
Forecast: 52 / 59 °F
Wind: 22 mph from West

Location: Stornoway

Current Time: Jul 27, 2016 at 2:30:11 PM

Latest Report: Jul 27, 2016 at 1:50 PM


Visibility: 6 mi

Pressure: 29.83 "Hg

Humidity: 94%

Dew Point: 55 °F

Location of StornowayLocation

Past Weather in Stornoway — Graph

°F

Stornoway Temperature Yesterday

Maximum temperature yesterday: 61 °F (at 10:50 AM)
Minimum temperature yesterday: 52 °F (at 11:50 PM)
Average temperature yesterday: 56 °F

High & Low Weather Summary for the Past Weeks

 TemperatureHumidityPressure
High72 °F (Jul 19, 5:20 PM)100% (Jul 13, 1:50 AM)30.24 "Hg (Jul 13, 1:50 AM)
Low43 °F (Jul 13, 4:50 AM)55% (Jul 14, 11:20 AM)29.65 "Hg (Jul 20, 9:50 AM)
Average57 °F88%29.93 "Hg
* Reported Jul 12 12:20 PM — Jul 27 12:50 PM, Stornoway, Weather by CustomWeather, © 2016

Note: Actual official high and low records may vary slightly from our data, if they occured in-between our weather recording intervals... More about our weather records

Advertising

Stornoway Weather History for the Previous 24 Hours

Scroll right to see more
 ConditionsComfort  
Time TempWeatherWind HumidityBarometerVisibility
12:50 PM
Wed, Jul 27
57 °FRain. Partly sunny.20 mph94%29.83 "HgN/A
12:20 PM59 °FDrizzle. Partly sunny.21 mph88%29.83 "HgN/A
11:50 AM59 °FScattered showers. Broken clouds.17 mph88%29.83 "HgN/A
11:20 AM57 °FDrizzle. Broken clouds.18 mph94%29.83 "HgN/A
10:50 AM57 °FScattered showers. Broken clouds.18 mph94%29.83 "HgN/A
10:20 AM57 °FLight rain. Partly sunny.17 mph94%29.80 "HgN/A
9:50 AM57 °FScattered showers. Partly sunny.16 mph94%29.80 "HgN/A
9:20 AM57 °FScattered showers. Partly sunny.17 mph94%29.80 "HgN/A
8:50 AM55 °FScattered showers. Partly sunny.15 mph94%29.80 "HgN/A
8:20 AM55 °FLight rain. Broken clouds.15 mph94%29.80 "Hg5 mi
7:50 AM55 °FLight rain. Broken clouds.13 mph94%29.80 "Hg6 mi
7:20 AM55 °FLight rain. Broken clouds.13 mph94%29.80 "Hg6 mi
6:50 AM55 °FRain. Broken clouds.13 mph94%29.80 "Hg6 mi
6:20 AM54 °FLight rain. Broken clouds.13 mph100%29.80 "HgN/A
5:50 AM54 °FLight rain. Passing clouds.14 mph94%29.80 "HgN/A
5:20 AM54 °FDrizzle. Overcast.12 mph94%29.80 "HgN/A
4:50 AM54 °FPassing clouds.9 mph94%29.83 "HgN/A
4:20 AM54 °FPassing clouds.8 mph94%29.83 "HgN/A
3:50 AM52 °FCool.8 mph94%29.83 "HgN/A
3:20 AM52 °FPassing clouds.8 mph100%29.83 "HgN/A
2:50 AM52 °FPassing clouds.9 mph100%29.83 "HgN/A
2:20 AM52 °FPassing clouds.7 mph94%29.83 "HgN/A
1:50 AM50 °FPassing clouds.6 mph94%29.86 "HgN/A
1:20 AM52 °FPartly cloudy.7 mph94%29.86 "HgN/A
12:50 AM50 °FCool.6 mph94%29.86 "HgN/A
12:20 AM52 °FCool.7 mph94%29.86 "HgN/A
11:50 PM
Tue, Jul 26
52 °FPartly cloudy.7 mph94%29.86 "HgN/A
11:20 PM54 °FPassing clouds.6 mph88%29.86 "HgN/A
10:50 PM54 °FScattered clouds.7 mph94%29.86 "HgN/A
10:20 PM54 °FPartly sunny.7 mph94%29.86 "HgN/A
9:50 PM54 °FScattered clouds.6 mph88%29.86 "HgN/A
9:20 PM54 °FPartly sunny.9 mph94%29.86 "HgN/A
8:50 PM54 °FLight rain. Broken clouds.13 mph94%29.86 "HgN/A
8:20 PM54 °FPartly sunny.13 mph94%29.86 "HgN/A
7:50 PM57 °FPartly sunny.9 mph82%29.89 "HgN/A
7:20 PM57 °FScattered showers. Broken clouds.7 mph77%29.89 "HgN/A
6:50 PM57 °FBroken clouds.9 mph77%29.89 "HgN/A
6:20 PM57 °FBroken clouds.9 mph77%29.89 "HgN/A
5:50 PM57 °FBroken clouds.8 mph82%29.89 "HgN/A
5:20 PM57 °FPartly sunny.9 mph82%29.89 "HgN/A
4:50 PM57 °FScattered showers. Partly sunny.8 mph82%29.89 "HgN/A
4:20 PM55 °FSprinkles. Broken clouds.14 mph88%29.89 "HgN/A
3:50 PM59 °FScattered showers. Broken clouds.13 mph72%29.92 "HgN/A
3:20 PM59 °FScattered showers. Scattered clouds.12 mph77%29.92 "HgN/A
2:50 PM57 °FSprinkles. Broken clouds.13 mph82%29.92 "HgN/A
2:20 PM57 °FScattered showers. Broken clouds.12 mph82%29.92 "HgN/A
Weather by CustomWeather, © 2016

See weather overviewHow to use our weather pages